{"data":{"norad_id":43700,"epoch":"2026-05-25T03:52:01.550784Z","epoch_age_seconds":67942,"freshness":"FRESH","line1":"1 43700U 18090A   26145.16112906  .00000142  00000+0  00000+0 0  9991","line2":"2 43700   0.0361 104.4822 0001661 349.8921 232.1745  1.00273168 27446","mean_motion":1.00273168,"eccentricity":0.0001661,"inclination_deg":0.0361,"raan_deg":104.4822,"arg_perigee_deg":349.8921,"mean_anomaly_deg":232.1745,"bstar":0,"rev_number":2744,"period_min":1436.0770969159,"perigee_km":35779.203762961,"apogee_km":35793.210758124,"semimajor_km":42164.344260542,"source":"CELESTRAK","updated_at":"2026-05-25T13:38:23.288569Z"}}